Theta_e
301 302 303 304 304 305 305 305 305 306 306 306 306 306 306 305 304 304 304 304 305 305 305 306 307 309 316 326 330 330 327 328
300 300 301 302 302 303 303 303 304 305 305 305 305 305 305 305 304 303 303 303 302 302 303 304 306 308 311 325 328 332 328 326
299 300 300 300 300 300 300 301 302 303 304 304 304 305 304 304 303 303 302 301 300 300 300 302 305 306 309 315 327 326 330 327
298 298 297 297 298 298 299 299 300 301 303 303 304 303 304 303 303 301 301 300 299 298 298 300 303 304 307 311 316 323 329 331
296 296 296 297 297 297 297 298 299 300 301 302 302 301 301 301 300 298 298 298 299 298 298 299 300 302 305 309 314 319 323 327
296 295 295 295 296 296 297 298 298 299 299 300 300 301 300 299 299 299 298 298 298 298 298 299 299 301 303 307 312 317 321 325
295 294 295 295 296 297 297 297 298 298 299 299 300 300 300 300 299 298 298 298 298 298 297 299 300 300 301 303 309 314 319 323
294 294 295 295 296 296 296 297 297 297 297 298 298 298 299 298 298 296 296 297 297 296 295 296 298 299 301 303 306 311 316 321
293 293 293 294 294 295 295 296 296 296 296 296 297 297 297 297 297 296 294 295 295 294 294 295 297 298 300 303 305 308 312 316
292 292 292 292 293 293 293 294 294 295 295 295 295 295 296 296 296 296 295 293 294 293 294 295 295 296 297 299 303 307 309 314
291 292 292 291 292 292 292 293 293 294 293 293 293 293 293 294 295 295 295 293 293 293 292 293 295 295 295 295 300 304 307 310
291 291 290 291 291 291 292 292 292 292 292 291 291 292 292 292 292 293 293 293 292 292 291 292 291 293 295 294 297 301 304 307
290 290 290 291 291 291 291 291 291 291 291 290 290 290 291 291 291 290 291 291 291 291 291 290 290 291 292 293 294 298 301 303
290 290 290 290 290 290 290 290 290 290 290 289 289 288 288 289 289 289 290 290 290 291 291 290 290 291 292 292 292 295 297 298
290 290 289 289 289 290 290 290 290 289 288 288 288 288 287 287 288 289 289 289 289 289 289 288 287 288 289 290 291 292 295 296
290 289 289 289 289 290 290 290 289 287 287 288 288 287 287 286 287 287 288 288 288 287 288 288 287 287 288 290 291 291 293 294
289 289 289 288 288 288 288 287 287 287 286 287 287 287 286 285 285 286 286 287 287 287 287 287 287 287 289 289 290 290 290 293
289 288 288 287 287 287 286 286 286 285 285 286 286 285 285 284 284 284 285 285 285 285 286 286 286 285 286 289 290 289 289 290
289 288 287 286 286 285 285 285 284 285 285 285 285 284 284 284 284 283 283 283 283 283 284 285 285 286 286 286 288 287 288 289
Wind_Speed
11 12 12 13 14 16 18 21 22 23 25 26 27 29 30 31 31 32 31 28 26 27 27 29 31 33 29 35 38 44 45 49
10 11 13 13 14 16 18 21 24 26 29 32 33 34 34 33 34 34 33 32 31 28 27 29 28 30 28 35 25 42 45 51
11 12 13 15 17 18 19 21 23 26 28 29 31 31 32 34 34 33 33 33 32 29 26 27 28 27 28 31 36 31 45 50
12 12 14 16 18 20 20 21 22 24 25 27 30 31 34 38 40 38 36 32 31 31 28 24 23 22 22 28 34 32 32 40
10 12 14 16 17 18 19 20 21 23 25 27 30 33 35 37 40 39 38 36 33 31 29 26 25 27 24 18 18 29 37 38
9 12 14 15 16 18 19 21 22 24 25 26 28 30 32 34 38 39 38 37 35 32 30 30 28 25 25 23 22 23 31 34
7 11 13 15 16 17 18 20 21 22 23 24 26 28 31 34 37 39 39 38 37 36 35 32 30 30 27 26 28 27 29 28
7 12 14 16 17 17 18 19 20 22 23 24 26 27 29 32 34 35 37 39 38 38 38 35 34 31 31 29 32 33 30 28
9 13 14 15 16 17 18 19 20 21 22 24 25 26 28 29 31 32 33 35 35 34 34 33 33 32 32 33 29 30 35 30
7 10 12 14 15 17 18 18 19 20 22 23 25 26 26 27 28 29 31 31 32 31 32 33 31 32 33 33 31 28 29 35
5 9 11 13 14 15 16 17 19 20 21 23 24 26 26 26 27 28 29 30 31 32 31 32 30 30 32 31 30 27 27 29
5 8 10 11 12 13 15 16 17 18 19 21 23 24 25 26 27 28 29 29 29 31 30 32 32 30 29 31 28 23 23 24
4 7 9 11 12 14 15 15 16 18 18 20 22 23 24 25 26 27 28 29 30 30 31 30 30 31 32 29 29 24 16 16
4 4 9 11 13 14 15 15 17 17 17 18 22 24 25 25 26 26 27 27 29 30 32 34 34 32 31 29 27 23 14 11
3 6 8 11 13 14 15 16 17 17 15 17 22 24 26 25 25 26 27 28 29 31 32 33 36 35 32 29 26 24 18 13
3 7 8 11 11 12 14 15 16 16 16 18 21 24 24 23 24 24 25 27 29 31 32 33 37 38 37 32 29 28 24 20
2 6 8 10 11 13 14 15 15 15 16 18 20 23 24 24 23 23 24 26 28 29 32 34 37 38 35 33 32 32 31 28
2 4 6 8 10 12 13 14 14 13 16 19 21 24 25 24 23 23 24 25 26 29 32 34 36 39 37 35 36 37 37 38
2 2 4 7 9 10 11 11 13 15 18 20 21 23 24 24 23 23 24 25 27 29 30 33 35 37 37 37 36 37 38 39
Wind_Direction
34 32 26 24 21 18 16 15 12 9 5 1 358 355 352 354 353 348 340 330 318 306 293 282 275 268 254 249 266 258 248 238
29 25 19 18 17 18 18 17 16 13 9 5 2 360 357 355 355 353 347 336 330 320 303 295 284 273 260 239 258 250 241 235
25 23 17 14 15 16 16 14 13 13 11 9 6 1 1 359 356 357 355 345 336 330 320 304 291 283 263 247 245 250 247 234
21 20 15 14 14 14 13 11 10 8 7 6 5 4 4 2 359 358 358 353 344 336 331 319 313 311 297 266 252 245 254 243
14 17 16 15 15 14 15 14 11 7 3 2 3 3 3 2 358 358 357 356 352 344 336 327 310 300 295 279 271 254 246 255
13 14 15 15 16 18 15 13 11 8 5 3 3 4 3 2 359 357 356 355 352 348 340 332 326 319 298 277 269 252 252 248
11 12 16 17 17 16 13 12 12 10 8 6 6 4 5 3 2 358 356 353 349 348 343 333 323 316 303 285 267 254 243 250
12 13 16 15 15 13 11 11 11 10 9 9 8 7 7 6 3 360 356 351 349 346 340 336 329 320 312 301 273 261 250 248
19 14 12 13 11 11 10 10 9 8 8 10 9 9 8 8 5 2 1 355 351 344 338 339 334 328 321 311 302 273 263 253
24 15 11 11 10 10 10 8 8 7 8 10 11 10 9 8 7 6 3 1 353 348 344 341 339 333 330 323 311 293 266 256
25 15 11 10 7 8 9 8 7 6 9 13 12 11 11 9 8 8 7 3 358 355 353 350 350 343 338 334 323 309 289 266
23 13 11 8 8 8 8 7 8 9 11 14 12 12 12 11 10 8 8 6 5 4 4 2 1 359 352 346 336 320 307 290
16 6 13 12 14 13 8 8 11 11 10 13 14 14 13 12 12 11 10 9 8 10 11 11 10 9 9 1 349 332 321 312
8 24 21 19 19 16 12 10 13 11 9 13 17 17 15 13 11 13 13 14 16 15 17 18 19 15 13 10 6 349 327 349
13 26 23 25 21 17 14 12 11 9 9 16 21 19 17 14 12 12 14 18 20 22 24 26 27 19 16 17 17 15 0 10
10 17 18 21 20 15 13 10 6 5 9 17 22 21 17 16 16 16 17 20 24 26 30 32 34 29 22 18 21 23 23 17
36 17 16 14 15 18 15 11 6 6 12 20 22 22 19 17 19 20 23 26 28 30 33 35 40 36 33 28 29 34 31 32
73 25 14 12 15 17 17 14 6 10 19 25 25 22 21 23 22 23 25 29 31 33 35 38 39 38 39 35 37 37 39 39
92 42 20 19 19 16 20 13 15 21 27 27 26 24 24 27 29 30 30 31 30 32 35 38 40 42 39 38 37 43 41 42